Theta_e
308 309 309 308 308 307 307 308 305 308 309 314 323 326 331 337 340 342 344 345 347 347 350 351 352 354 356 357 356 357 360 359 362 365 365 367 367 368 368 369 370 371 372 375
305 308 308 306 308 308 308 309 309 309 309 316 321 328 331 337 339 340 340 343 343 344 346 349 352 353 355 355 352 355 351 348 349 358 360 361 360 358 358 361 361 365 371 368
302 307 307 303 307 308 308 310 309 306 311 316 316 322 330 336 338 339 339 341 341 342 343 347 347 347 347 348 351 350 349 347 349 350 352 360 362 359 356 360 358 359 362 364
303 306 298 308 314 313 309 310 312 313 314 319 319 326 331 338 339 339 340 340 342 341 344 345 347 347 347 347 347 348 350 348 348 352 351 356 358 359 361 363 363 361 364 368
302 302 306 309 312 311 309 309 313 313 316 317 321 325 330 338 341 341 341 342 341 342 344 345 343 346 344 344 345 343 342 344 345 350 352 354 353 357 359 359 361 364 365 366
304 300 298 309 314 316 315 305 315 315 317 319 323 317 322 338 340 339 340 339 339 340 340 342 343 343 341 339 340 340 342 343 347 349 350 350 353 358 359 361 360 366 362 364
303 300 305 313 315 316 305 307 316 317 319 322 324 325 336 340 339 339 339 338 339 339 338 339 339 336 334 334 333 337 341 344 347 348 349 351 354 356 358 355 361 365 360 361
304 300 298 315 313 309 319 324 321 323 323 325 331 335 338 339 339 338 337 336 336 334 335 336 336 335 333 332 334 335 337 340 343 345 344 344 349 352 353 352 358 361 360 356
306 304 316 317 316 324 326 323 325 326 327 329 329 335 337 337 337 338 338 336 335 334 334 335 336 334 331 332 334 335 335 337 339 344 344 344 344 345 344 353 347 357 358 354
306 312 314 317 321 325 326 323 325 326 328 329 329 333 334 334 332 331 333 333 333 332 331 330 332 331 331 332 334 334 335 335 337 339 339 342 338 340 341 341 341 345 342 344
308 313 314 316 317 319 322 324 325 326 328 329 331 333 333 327 328 330 331 333 333 331 331 329 330 329 329 331 333 332 333 333 333 331 335 336 337 336 337 340 327 333 338 331
308 311 311 313 318 318 320 323 325 331 333 334 333 330 326 326 329 328 330 331 331 332 330 328 327 327 329 332 333 332 329 327 327 329 330 331 332 333 315 313 307 304 302 309
310 314 315 319 319 324 323 325 330 333 334 331 331 325 327 327 329 324 329 329 328 328 327 328 326 326 327 329 331 331 329 327 326 324 327 329 329 329 328 327 307 305 304 303
313 316 314 317 316 323 325 326 328 332 333 329 325 323 321 323 324 326 326 327 328 327 327 327 325 325 326 326 328 328 327 316 325 324 325 327 327 328 327 326 327 331 311 310
313 317 316 318 320 320 323 327 328 328 326 325 326 323 323 321 320 323 328 329 327 327 327 326 325 324 326 326 325 325 323 323 323 323 324 323 326 327 324 324 325 328 329 317
316 316 316 316 318 321 323 321 321 324 326 326 325 324 322 321 323 325 326 327 326 323 325 325 323 324 325 325 324 323 323 318 319 321 322 323 324 324 322 321 320 322 323 318
311 312 314 315 315 322 321 321 320 320 321 321 321 322 323 322 324 325 325 327 328 325 325 325 324 324 323 322 321 320 320 321 315 321 320 321 321 320 316 316 318 319 318 314
315 316 316 318 315 320 317 315 317 317 317 319 321 322 322 323 322 324 324 324 325 325 324 324 323 323 322 319 319 319 318 318 319 318 317 316 313 314 313 314 314 314 315 313
315 316 318 317 316 318 314 317 318 319 322 322 320 320 322 323 324 323 323 322 322 320 321 320 314 320 320 314 315 317 316 316 316 315 313 309 310 311 312 311 310 311 311 309
314 317 317 319 317 317 319 320 320 319 320 320 321 321 321 323 323 322 322 321 323 320 323 320 320 318 318 316 316 315 314 314 312 310 308 306 306 306 308 305 307 307 307 306
315 318 317 320 318 321 318 319 318 317 319 321 321 321 321 324 323 322 320 317 320 320 319 316 318 316 315 315 315 313 312 311 308 305 304 302 302 303 304 304 304 303 303 303
317 315 316 318 317 316 317 318 318 318 319 320 320 320 320 322 321 320 322 318 319 310 317 317 316 312 313 312 315 313 312 311 306 305 303 302 302 301 301 301 300 300 300 299
315 314 317 315 316 318 318 318 319 319 319 320 320 320 319 319 319 316 315 320 318 314 317 315 309 310 311 316 315 313 311 310 308 305 304 303 302 300 299 298 298 298 298 298
320 320 318 318 319 319 318 320 320 320 321 322 321 323 321 319 318 319 318 310 308 311 315 313 310 308 306 315 314 313 311 309 309 307 305 299 302 301 300 299 298 298 297 297
320 320 319 318 317 318 320 320 319 319 319 320 321 322 324 321 319 316 317 316 307 310 314 307 307 307 311 314 314 312 311 309 308 308 306 303 302 301 300 301 300 299 299 300
318 319 317 318 319 318 317 317 315 316 317 317 320 322 323 321 318 318 317 313 314 310 313 313 313 312 314 314 314 312 311 311 309 307 306 305 304 302 301 300 300 300 299 300
313 309 315 314 316 313 313 316 316 317 316 319 319 321 321 318 317 315 310 314 314 314 314 314 314 312 314 314 313 312 312 313 307 310 308 307 305 304 302 301 301 299 299 298
Wind_Speed
20 20 17 11 17 21 22 17 20 14 16 13 16 12 12 12 11 9 9 9 9 7 8 8 8 6 10 8 9 6 6 3 3 5 4 5 4 3 6 10 10 10 12 12
22 23 20 22 19 15 17 20 19 18 19 15 8 11 12 11 13 12 10 10 11 11 10 8 8 9 9 8 7 7 9 7 5 13 11 7 6 3 1 7 13 15 11 10
21 21 22 26 20 20 19 19 16 18 11 13 9 8 12 11 13 14 13 11 10 12 9 7 9 8 7 6 5 2 7 5 5 2 8 10 10 6 4 8 9 11 11 12
16 20 30 17 20 20 22 21 17 14 9 3 3 8 11 13 14 13 11 13 12 11 11 10 7 6 6 6 5 4 6 5 2 7 3 11 9 7 7 7 10 10 11 12
17 19 20 19 17 22 18 19 19 16 14 8 8 7 10 13 14 13 10 9 7 8 8 8 8 8 7 6 6 6 5 4 4 4 3 8 7 8 8 7 9 9 7 5
17 24 28 18 19 10 12 18 15 14 12 11 11 11 10 14 12 9 12 13 11 12 11 10 8 8 7 7 5 4 4 3 5 6 7 8 6 9 8 9 10 6 11 6
19 21 21 15 14 16 23 10 16 19 11 14 14 4 10 18 15 12 10 12 11 11 10 10 9 9 9 9 7 5 5 6 6 8 8 10 11 11 11 9 9 8 8 7
18 22 24 21 7 14 4 8 0 8 12 12 13 8 15 18 17 18 13 13 12 11 11 9 8 7 7 8 5 5 5 5 6 6 7 7 10 10 10 7 8 7 6 6
19 8 15 6 6 11 11 4 6 6 7 11 13 15 15 18 17 18 18 15 15 13 11 9 7 6 7 6 7 7 8 8 7 8 6 5 8 8 10 6 6 8 6 6
10 20 17 12 3 4 5 6 3 5 10 10 12 15 15 15 12 14 14 14 13 12 9 7 6 7 6 5 4 4 5 6 7 7 6 6 6 8 8 8 8 6 7 9
4 23 20 24 15 8 3 5 3 4 5 7 10 14 15 10 4 11 9 11 13 11 10 7 7 6 5 5 3 4 3 3 4 5 6 5 5 5 6 7 5 7 6 6
1 5 3 24 21 17 9 8 7 9 9 8 17 16 14 13 7 9 6 8 9 13 10 8 8 5 4 5 4 6 5 7 5 5 5 7 6 8 4 6 6 7 5 3
3 15 6 17 24 14 14 8 8 12 17 22 19 14 14 12 9 9 6 8 9 9 9 8 7 5 5 5 6 5 5 6 6 6 6 5 6 7 9 8 9 9 9 7
12 20 17 13 14 7 14 13 13 15 18 19 23 22 9 8 8 8 8 7 7 9 7 6 6 5 5 6 5 5 6 6 6 7 8 7 7 5 7 8 9 6 7 9
15 23 15 17 15 9 3 14 11 17 19 19 17 18 18 18 14 7 6 7 7 7 6 5 5 5 6 6 7 6 6 6 7 8 8 7 8 5 5 7 8 7 7 3
15 13 14 18 14 13 14 15 15 15 16 16 14 14 12 14 13 11 7 7 8 8 7 6 4 5 5 7 7 5 5 7 4 7 8 8 8 9 6 7 7 8 7 6
11 13 14 19 9 17 19 16 12 12 15 16 17 16 15 16 14 12 10 8 8 8 8 6 6 6 4 7 8 6 5 6 3 6 9 9 8 8 8 7 7 6 6 4
11 8 13 11 6 18 18 15 16 15 12 13 14 14 15 15 14 11 11 11 10 10 8 7 5 4 6 8 7 6 6 7 8 8 8 9 8 10 9 7 7 7 6 5
6 5 13 6 15 12 16 13 13 14 13 11 11 13 13 13 13 10 11 11 11 12 10 8 5 1 7 7 8 6 8 9 9 9 9 10 10 9 8 7 7 7 6 6
3 7 10 13 5 13 17 14 14 13 13 13 13 12 12 11 13 10 11 8 7 9 11 9 6 7 6 5 6 8 10 10 10 9 8 8 8 9 8 7 7 6 6 5
9 8 0 10 9 19 16 13 13 13 13 13 12 12 12 12 11 10 10 9 9 6 11 5 4 6 6 5 7 9 10 10 10 9 8 8 7 7 7 6 6 5 5 5
13 11 4 5 10 13 13 12 11 11 11 11 11 10 10 12 10 9 5 9 10 9 9 8 8 8 5 7 8 9 10 9 6 6 6 6 5 5 6 5 5 5 4 4
17 15 8 8 9 10 10 10 11 10 10 9 9 9 9 9 8 6 8 7 10 8 4 8 13 8 4 5 6 6 8 9 8 7 7 7 6 5 4 5 4 4 4 5
8 11 12 11 11 10 10 9 9 8 8 8 8 9 8 6 6 2 9 12 12 8 5 10 11 9 7 6 5 4 6 7 7 7 5 6 7 6 4 3 4 4 5 5
9 11 11 9 9 8 7 7 7 7 8 8 9 8 9 7 7 8 5 8 12 7 8 12 14 10 8 7 4 6 6 7 8 8 8 7 7 6 6 5 4 4 4 4
6 4 5 5 7 4 3 4 5 7 8 7 6 5 6 4 5 7 8 9 9 9 8 9 9 8 10 5 2 6 7 7 5 7 8 9 7 6 5 5 5 5 5 5
6 4 5 6 4 6 3 3 4 2 5 8 8 6 6 7 8 8 6 8 7 8 7 8 9 8 7 2 5 4 4 5 4 6 5 6 6 6 6 5 5 4 6 7
Wind_Direction
254 268 275 263 217 214 237 242 253 253 245 246 192 188 162 148 152 158 144 140 125 106 97 120 119 131 88 91 98 74 53 49 340 285 311 294 276 317 323 320 292 278 269 270
254 258 257 253 253 235 243 228 240 254 263 278 117 142 159 160 167 171 158 137 121 107 88 116 117 116 119 109 90 104 79 83 16 351 345 324 310 262 279 295 304 307 304 289
245 243 248 250 240 240 244 247 225 244 244 246 218 165 171 179 190 174 163 146 147 116 112 122 108 102 92 87 94 102 118 121 125 276 273 280 268 264 303 288 281 282 292 287
250 245 242 252 255 237 236 243 228 237 234 264 258 176 172 174 202 176 176 161 157 132 137 143 139 124 129 99 93 97 86 109 232 229 307 276 286 295 302 302 287 289 293 295
246 249 260 248 249 243 236 237 233 229 225 204 233 193 175 171 194 182 193 123 134 119 103 86 118 145 134 155 101 59 29 11 8 318 295 286 307 282 300 307 296 287 290 287
245 252 249 253 242 219 241 251 243 236 204 186 198 210 199 170 175 150 139 136 162 145 139 139 145 122 103 86 75 58 55 8 353 6 343 337 322 327 322 315 290 282 283 260
231 247 257 267 272 294 212 239 225 218 197 192 186 255 99 128 149 143 153 147 130 147 131 122 124 124 116 106 86 49 27 19 360 2 355 349 342 344 338 333 304 267 275 264
241 241 239 250 318 259 36 51 157 165 186 177 184 129 147 141 153 160 156 139 145 131 125 118 117 110 97 82 56 34 28 15 8 10 349 350 335 328 326 329 305 275 259 264
277 268 281 271 288 47 349 125 147 178 159 178 180 158 166 141 161 161 151 152 136 132 132 105 82 75 74 41 31 23 11 5 0 345 1 10 330 339 319 338 355 332 305 268
345 246 256 281 115 140 283 287 208 221 190 197 193 161 163 143 155 154 151 140 129 126 115 110 92 78 72 51 16 23 29 6 345 334 337 11 336 335 337 341 342 336 351 332
251 276 289 278 238 241 233 277 231 215 171 193 155 152 133 118 152 113 136 135 132 135 132 145 102 91 84 75 48 65 60 27 359 339 326 323 350 328 337 0 360 333 346 346
237 287 227 270 235 237 227 216 228 120 121 101 115 121 100 108 117 108 143 141 143 139 132 123 131 124 100 60 46 27 13 38 25 336 348 345 338 325 214 245 208 237 256 270
251 234 240 307 294 178 183 176 142 143 129 119 101 85 116 121 113 107 177 165 150 127 131 135 125 115 77 51 33 35 5 18 338 330 347 346 336 343 328 318 222 234 244 252
312 288 300 167 246 194 162 171 131 145 139 135 130 120 99 63 86 149 174 168 115 127 127 112 102 70 43 53 24 19 353 137 342 336 333 336 348 342 322 321 324 335 249 245
248 257 274 278 276 222 134 125 164 167 159 159 158 158 161 146 146 194 213 136 117 115 145 132 100 69 42 29 20 4 350 358 351 325 320 328 303 359 338 323 318 319 323 301
276 248 271 255 250 188 180 143 162 170 156 155 155 166 152 146 147 176 174 160 167 171 130 121 118 78 47 24 357 344 356 119 287 336 312 320 335 330 343 329 320 321 330 344
274 254 253 240 190 216 155 140 144 145 146 148 145 154 163 154 156 162 163 169 117 130 133 137 113 68 51 26 351 347 338 339 334 330 337 331 337 335 325 323 320 323 322 0
250 262 268 290 48 192 124 128 146 143 144 134 137 150 153 154 159 156 158 152 152 137 139 117 88 107 66 26 349 328 351 349 342 342 335 347 339 314 317 320 319 318 322 325
285 290 251 140 251 116 108 122 137 133 128 130 148 154 160 160 135 134 156 153 149 146 120 118 165 87 71 29 327 9 16 359 358 358 355 337 319 320 321 324 324 318 323 325
235 156 288 227 81 111 143 142 134 138 141 148 150 147 153 140 136 164 158 142 102 127 133 143 125 79 81 53 315 33 22 10 5 5 359 336 334 328 322 329 325 324 325 330
101 107 257 119 176 150 121 135 143 141 144 146 150 155 154 136 145 157 159 140 115 137 109 176 105 91 77 20 29 43 30 20 14 358 354 344 337 335 332 341 344 344 341 347
121 92 17 42 102 104 120 131 136 138 142 148 150 153 157 135 160 175 131 122 125 181 169 149 105 40 62 300 55 37 37 37 23 4 355 351 348 348 348 359 2 8 358 16
142 149 168 141 129 120 133 137 140 145 146 154 163 142 188 160 157 154 159 130 136 178 218 112 126 138 258 267 88 64 35 38 45 29 12 10 8 11 15 13 16 24 17 25
131 143 152 149 145 135 130 137 137 147 161 170 175 171 156 148 140 175 110 75 97 150 83 131 140 166 234 262 104 75 57 47 42 50 39 57 25 5 1 12 27 35 38 22
140 139 140 139 132 121 128 145 148 156 173 190 165 177 139 177 173 130 157 137 125 201 188 136 158 178 232 249 117 108 94 52 29 50 46 62 57 25 13 17 43 48 50 32
73 53 94 73 78 101 124 172 187 180 185 153 118 127 170 173 122 143 144 148 165 205 181 155 179 202 236 239 153 140 132 128 88 58 50 51 53 57 31 16 27 29 42 35
77 47 77 90 82 66 29 254 105 95 113 143 148 162 164 143 151 167 164 168 171 182 175 171 181 200 256 205 189 146 146 136 129 127 93 71 55 77 65 36 33 61 36 21